sat.trackr.live / text

‹ back to catalog

STARLINK-1542

NORAD 46073 · 2020-055AY

PAYLOAD ACTIVE UNKNOWN

§ Identity

Operator
Country
US
Launch date
2020-08-07
Launch site
AFETR
Launch vehicle
Mass (kg)
RCS (m²)

Purposes: comms

External: N2YO · Heavens-Above · Gunter

§ Orbital elements

Epoch: 2026-05-25T03:24:00.410688Z

Period
94.01 min
Inclination
53.1619°
Eccentricity
0.0001240
Mean motion
15.31699358 rev/d
Perigee alt
469.9 km
Apogee alt
471.6 km
Semi-major
6,848.9 km
B*
-8.2041e-6
RAAN
109.1527°
Arg perigee
93.7864°
Mean anomaly
266.3279°
Rev number
32,089

§ Raw data

STARLINK-15421 46073U 20055AY  26145.14167142 -.00000620  00000+0 -82041-5 0  99952 46073  53.1619 109.1527 0001240  93.7864 266.3279 15.31699358320893

JSON: /api/v1/satellites/46073 · /tle

For live sub-satellite position, see the globe view (requires WebGL).

§ Visibility from observer

Set your observer location to see the next 7 days of passes ≥ 10°. The values pass through the URL so the page stays shareable.

No JS? Fill the form by hand. The geolocation button needs JavaScript.